Location: Overspoor
(51.4747°N, 5.6641°E)
Time: 01:53:46
(UTC+02:00)

DIWATA 2B (PO-101) - Visible Passes

Search period start: 28 June 2022 00:00
Search period end: 08 July 2022 00:00
Orbit: 585 x 597 km, 98.0° (Epoch: 27 June)

Date Brightness Start Highest point End Pass type
(mag) Time Alt. Az. Time Alt. Az. Time Alt. Az.
28 Jun ? 01:41:21 10° E 01:43:17 13° NE 01:45:13 10° NNE visible
28 Jun ? 03:14:06 11° SSE 03:18:08 83° ENE 03:22:23 10° NNW visible
29 Jun ? 01:49:07 10° E 01:51:31 15° ENE 01:53:55 10° NNE visible
29 Jun ? 03:22:33 12° SSE 03:26:29 83° WSW 03:30:43 10° NNW visible
30 Jun ? 01:57:00 10° E 01:59:46 17° ENE 02:02:32 10° NNE visible
30 Jun ? 03:31:00 12° S 03:34:49 69° WSW 03:39:03 10° NNW visible
01 Jul ? 02:04:56 10° ESE 02:08:01 20° ENE 02:11:06 10° NNE visible
01 Jul ? 03:39:28 13° S 03:43:11 57° WSW 03:47:21 10° NNW visible
02 Jul ? 02:12:57 10° ESE 02:16:17 23° ENE 02:19:38 10° N visible
02 Jul ? 03:47:55 13° S 03:51:33 47° W 03:55:39 10° NNW visible
03 Jul ? 02:21:01 10° ESE 02:24:33 27° ENE 02:28:07 10° N visible
03 Jul ? 03:56:22 12° SSW 03:59:56 39° W 04:03:56 10° NNW visible
04 Jul ? 02:29:07 10° SE 02:32:50 31° ENE 02:36:34 10° N visible
04 Jul ? 04:04:50 12° SSW 04:08:19 33° W 04:12:10 10° NNW visible
05 Jul ? 02:37:15 10° SE 02:41:07 37° ENE 02:45:01 10° N visible
05 Jul ? 04:13:18 11° SSW 04:16:43 28° W 04:20:23 10° NW visible
06 Jul ? 02:45:26 10° SE 02:49:25 43° ENE 02:53:26 10° N visible
06 Jul ? 04:21:46 10° SSW 04:25:07 24° W 04:28:34 10° NW visible
07 Jul ? 02:53:40 10° SE 02:57:43 52° ENE 03:01:50 10° N visible
07 Jul ? 04:30:25 10° SW 04:33:32 20° W 04:36:41 10° NW visible
